Location: Cerese
(45.1167°N, 10.7833°E)
Time: 08:07:40
(UTC+00:00)

Daily predictions for brighter satellites

Satellite Brightness Start Highest point End
(mag) Time Altitude Azimuth Time Altitude Azimuth Time Altitude Azimuth
ATLAS 2AS CENTAUR R/B 4.2 16:26:26 10° NNW 16:32:14 22° NNE 16:37:46 10° ENE
Cosmos 2266 Rocket 4.3 16:26:20 10° N 16:32:36 79° W 16:38:56 10° S
Lacrosse 5 3.6 16:31:51 10° WNW 16:35:44 22° N 16:39:38 10° NE
CSL-04 DEB 4.3 16:32:04 10° NNE 16:36:02 89° ESE 16:39:57 10° SSW
AQUARIUS 4.1 16:32:49 10° SSE 16:37:16 70° ENE 16:41:46 10° N
Cosmos 1953 Rocket 3.7 16:35:21 10° N 16:39:44 57° E 16:44:07 10° SSE
Cosmos 1656 4.2 16:35:03 10° S 16:40:11 40° ESE 16:45:26 10° NE
Cosmos 968 Rocket 4.1 16:38:43 10° N 16:43:30 35° ENE 16:48:13 10° SE
Cosmos 1408 4.2 16:42:10 10° NNE 16:44:24 15° ENE 16:46:37 10° ESE
Cosmos 2058 Rocket 3.5 16:41:40 10° SSE 16:45:54 42° E 16:50:09 10° NNE
NOAA 12 4.2 16:41:53 10° SSE 16:47:11 89° ENE 16:52:32 10° NNW
FALCON 9 DEB 3.5 16:45:01 10° WSW 16:48:13 55° NNW 16:51:25 10° NE
CZ-4B R/B 3.5 16:43:02 10° S 16:48:38 76° WSW 16:54:09 10° NNW
ADEOS Rocket 3.8 16:45:23 10° N 16:51:50 66° WNW 16:58:57 10° SSW
USA 281 3.3 16:46:00 10° SSE 16:52:34 86° WSW 16:59:11 10° NNW
Cosmos 1689 Rocket 3.3 16:51:40 10° NE 16:54:00 22° E 16:56:19 10° SSE
IRS-1C Rocket 4.4 16:50:43 10° SE 16:55:43 46° ENE 17:00:45 10° N
FALCON 9 DEB 3.8 16:54:43 10° W 16:57:50 45° NNW 17:00:47 11° NE
CZ-4C R/B 4.2 16:54:58 10° NNW 16:59:29 19° NNE 17:04:27 10° ENE
Cosmos 2227 Rocket 2.3 16:54:16 10° NNW 16:59:52 59° ENE 17:05:26 10° SE
Cosmos 1892 3.3 16:57:00 10° N 17:00:36 34° ENE 17:04:10 10° SE
Cosmos 1939 Rocket 3.1 16:57:08 10° SE 17:00:52 43° ENE 17:04:36 10° N
Cosmos 2263 Rocket 3.9 16:58:15 10° N 17:01:13 14° NE 17:03:25 12° ENE
Cosmos 1302 Rocket 4.0 16:57:01 10° SSW 17:02:16 80° ESE 17:07:35 10° NNE
H-2A R/B 3.7 17:02:34 10° N 17:06:20 34° WNW 17:10:02 10° SW
USA 307 3.3 17:02:58 10° NW 17:07:07 45° NNE 17:10:17 16° E
COSMO-SKYMED 1 2.8 17:04:07 10° NNE 17:08:20 47° E 17:12:31 10° S
SAR-Lupe-4 3.5 17:06:27 10° NNE 17:10:01 62° ESE 17:13:33 10° S
Cosmos 1300 3.3 17:06:19 10° SSW 17:10:05 60° W 17:13:53 10° N
Cosmos 1400 Rocket 2.8 17:07:37 10° S 17:11:44 83° E 17:15:50 10° NNE
USA 308 3.3 17:07:56 10° NW 17:12:06 48° NNE 17:15:04 18° E
Cosmos 1486 Rocket 4.0 17:07:58 10° NNW 17:13:18 64° ENE 17:18:33 10° SSE
Cosmos 1697 Rocket 3.1 17:08:08 10° S 17:13:19 40° ESE 17:18:31 10° NE
CZ-4B R/B 1.8 17:10:50 10° N 17:14:00 61° WNW 17:17:04 10° SSW
Cosmos 1825 3.3 17:13:10 10° NNE 17:16:13 23° ENE 17:17:29 19° ESE
ERS-2 2.9 17:14:12 10° N 17:17:46 54° WNW 17:21:19 10° SSW
Helios 1A Rocket 3.1 17:14:15 10° SE 17:18:11 46° ENE 17:22:07 10° N
Meteor 2-8 Rocket 4.4 17:13:48 10° S 17:19:53 80° E 17:26:04 10° N
YAOGAN 1 3.1 17:16:39 10° SE 17:20:35 36° ENE 17:24:32 10° N
S3M 4.1 17:15:19 10° SSE 17:21:08 48° E 17:27:02 10° NNE
CZ-4 R/B 4.5 17:17:28 10° SSE 17:21:33 58° ENE 17:25:40 10° N
BREEZE-M TANK 3.0 17:13:58 10° W 17:22:41 90° SE 17:24:59 22° E
Cosmos 1503 Rocket 4.3 17:18:26 10° N 17:23:28 45° ENE 17:28:30 10° SE
Atlas Centaur 2 4.4 17:16:57 10° SW 17:23:35 28° S 17:30:04 11° ESE
CZ-2D R/B 3.2 17:22:27 10° SSE 17:26:13 61° ENE 17:29:58 10° N
Cosmos 1812 Rocket 4.2 17:22:47 10° SSE 17:26:42 32° E 17:30:36 10° NNE
Meteor 2-1 Rocket 4.3 17:21:50 10° SSE 17:27:06 48° E 17:32:24 10° NNE
Cosmos 1340 2.9 17:23:41 10° NNW 17:27:27 70° W 17:31:12 10° S
Okean O Rocket 3.6 17:23:41 10° SSW 17:27:34 31° W 17:31:28 10° NNW
SAR-Lupe-1 4.0 17:24:16 10° NNE 17:27:51 84° WNW 17:31:24 10° SSW
CZ-4 R/B 1.4 17:25:18 10° SSE 17:29:02 47° ENE 17:32:45 10° N
Cosmos 1417 Rocket 4.4 17:25:05 10° S 17:31:18 72° E 17:37:38 10° NNE
SKYMED 3 4.5 17:28:02 10° NNE 17:32:25 86° E 17:36:46 10° SSW
Aureole 3 3.8 17:32:05 10° SSW 17:35:02 44° W 17:37:55 10° N
Cosmos 1346 Rocket 2.7 17:31:20 10° N 17:35:19 67° ENE 17:39:17 10° SSE
SL-4 R/B 2.5 17:32:06 10° NW 17:35:28 38° NNE 17:36:33 30° NE
Cosmos 2058 2.8 17:32:01 10° N 17:36:06 64° E 17:40:09 10° SSE
Cosmos 1354 Rocket 4.1 17:31:10 10° NNW 17:36:18 51° ENE 17:41:00 12° SE
Cosmos 1980 Rocket 2.8 17:32:01 10° SSE 17:36:59 33° ESE 17:39:22 23° ENE
Cosmos 1992 Rocket 3.9 17:33:39 10° S 17:38:48 68° ESE 17:43:59 10° NNE
Cosmos 2151 4.4 17:35:32 10° NNE 17:37:30 20° NE 17:37:30 20° NE
Cosmos 2297 Rocket 2.8 17:33:47 10° NNW 17:39:21 59° WSW 17:44:53 10° S
PSLV R/B 3.8 17:36:14 10° NNE 17:40:25 86° ESE 17:44:33 10° SSW
In-Cosmos 22 Rocket 4.4 17:35:30 10° NNW 17:40:51 70° W 17:46:18 10° S
Meteor 2-15 Rocket 4.4 17:35:37 10° S 17:41:39 62° E 17:47:43 10° NNE
CZ-2C R/B 3.2 17:37:00 10° SSE 17:42:41 63° ENE 17:48:13 10° N
CSL-04 Debris 4.4 17:38:03 10° SE 17:43:16 48° ENE 17:48:30 10° N
Cosmos 1315 Rocket 2.7 17:41:35 10° S 17:45:30 67° E 17:49:30 10° NNE
NOAA 15 4.5 17:43:29 10° SSE 17:48:47 74° ENE 17:54:06 10° N
Cosmos 1553 Rocket 4.2 17:43:08 10° SSW 17:49:28 76° W 17:55:46 10° N
CRYOSAT 2 4.3 17:45:59 10° NNE 17:50:47 57° E 17:55:34 10° S
Cosmos 220 Rocket 4.0 17:47:03 10° SSW 17:51:25 81° WNW 17:55:50 10° NNE
Meteor 2-15 4.4 17:46:57 10° S 17:53:06 87° W 17:59:17 10° N
Geosat 4.2 17:52:54 33° ENE 17:54:39 45° ESE 17:59:27 10° S
Meteor 2-10 Rocket 3.5 17:50:04 10° SSW 17:55:21 84° W 18:00:30 10° N
BREEZE-M R/B 3.8 17:51:42 10° WNW 17:55:47 65° NNE 17:59:00 33° E
SKYMED 2 4.3 17:52:10 10° N 17:56:25 53° WNW 18:00:38 10° SSW
USA 305 2.8 17:52:41 10° NW 17:57:00 89° NE 17:58:11 47° SE
Cosmos 1455 2.1 17:53:35 10° S 17:57:21 86° W 18:01:12 10° N
Cosmos 2360 4.1 17:54:25 10° SSW 18:00:07 73° ESE 18:04:36 17° NNE
SeaSat 1 3.1 18:00:38 34° NE 18:00:38 34° NE 18:05:03 10° NNW
NOSS 3-4 (A) 4.1 17:56:17 10° NNW 18:02:58 49° NE 18:05:39 35° E
NOSS 3-4 (C) 4.1 17:56:23 10° NNW 18:03:04 49° NE 18:05:43 35° E
H-2A R/B 2.1 17:57:46 10° SSE 18:03:08 67° ENE 18:08:34 10° N
USA 306 2.8 17:59:12 10° WNW 18:03:30 83° SW 18:04:25 54° SE
Okean-O 3.0 18:00:14 10° S 18:04:38 64° W 18:09:03 10° NNW
MOS 1 Rocket 3.2 18:04:17 10° NNE 18:09:02 70° E 18:14:03 10° S
Cosmos 2278 3.6 18:04:46 10° S 18:10:22 64° ESE 18:12:45 35° NE
NOSS 3-3 (A) 4.0 18:05:44 10° SW 18:11:34 77° NW 18:16:10 21° NE
NOSS 3-3 (C) 4.0 18:05:51 10° SW 18:11:41 78° NW 18:16:14 21° NE
USA 215 4.1 18:10:10 29° NE 18:12:22 36° NNE 18:18:13 10° NW
Cosmos 1745 Rocket 4.5 18:10:17 10° NNW 18:16:31 63° W 18:22:45 10° S
GEOS 3 Rocket 3.7 18:17:20 55° E 18:18:10 62° NE 18:23:30 10° NNW
ARGOS 3.0 18:17:21 44° SE 18:19:00 68° ENE 18:24:24 10° N
Cosmos 44 Rocket 3.1 18:14:15 10° SSW 18:19:01 90° E 18:19:57 59° NE
Cosmos 1408 4.1 18:16:10 10° NNW 18:19:34 37° W 18:22:58 10° SSW
Lacrosse 5 3.2 18:15:51 10° NW 18:20:08 26° NNE 18:20:11 26° NNE
Cosmos 2082 4.2 18:14:35 10° NNW 18:20:15 61° WSW 18:25:52 10° S
Meteor 2-3 Rocket 4.2 18:15:06 10° N 18:19:36 41° NE 18:19:36 41° NE
ATLAS 2AS CENTAUR R/B 2.9 18:17:43 10° NNW 18:25:05 52° NE 18:26:17 48° ENE
Cosmos 2369 4.2 18:29:19 10° SW 18:34:56 58° WNW 18:39:11 18° NNE
Cosmos 967 Rocket 4.4 18:30:29 10° SSW 18:36:34 63° SE 18:36:34 63° SE
Cosmos 1777 Rocket 4.3 18:34:26 10° NNW 18:38:35 55° N 18:38:35 55° N
CSL-04 Rocket 4.1 18:34:57 10° S 18:40:27 62° WSW 18:45:55 10° NNW
Cosmos 2227 Rocket 4.5 18:39:11 10° NW 18:43:27 22° W 18:47:43 10° SSW
Cosmos 1709 Rocket 4.3 18:39:43 10° NNW 18:46:02 66° W 18:52:20 10° S
Cosmos 2263 Rocket 2.6 18:40:38 10° NNW 18:45:07 52° N 18:45:07 52° N
USA 307 4.2 18:43:07 10° WNW 18:46:28 38° WSW 18:46:28 38° WSW
CZ-4C R/B 3.4 18:43:13 10° NNW 18:49:38 44° NE 18:49:38 44° NE
Cosmos 1825 4.3 18:48:30 10° NNW 18:51:40 25° W 18:52:23 24° WSW
USA 308 4.4 18:48:08 10° WNW 18:51:16 34° WSW 18:51:16 34° WSW
Cosmos 1697 Rocket 4.1 18:52:13 10° WSW 18:57:19 35° NW 19:01:26 15° N
CZ-4 R/B 4.4 19:02:18 10° WSW 19:04:19 14° W 19:06:21 10° WNW
Atlas Centaur 2 4.3 19:05:34 10° WSW 19:12:18 27° S 19:12:40 27° S
Cosmos 1980 Rocket 3.3 19:15:34 10° SW 19:20:51 41° NW 19:21:13 40° NW
USA 215 4.4 19:57:31 38° NW 19:57:31 38° NW 20:01:21 10° NW
ATLAS 2AS CENTAUR R/B 4.1 20:09:07 10° NW 20:13:44 33° WNW 20:13:44 33° WNW
CZ-4C R/B 4.4 20:31:38 10° NW 20:34:50 29° NW 20:34:50 29° NW
